[[{"header":{"parameterUnit":"m.s-1","parameterCategory":1,"la1":30.2991,"la2":30.254,"lo1":-89.0895,"lo2":-89.0444,"dy":0.0017,"dx":0.0017,"nx":28,"ny":28,"refTime":"2023-09-09T03:00:00:Z","depth":0,"parameterNumber":2,"parameterNumberName":"U-component_of_WINDS"},"data":[0,0,0,0,0,0,0,0,0,0,0,0,0,0,0,0,0,0,0,0,0,0,0,0,0,0,0,0,0,0,0,0,0,0,0,0,0,0,0,0,0,0,0,0,0,0,0,0,0,0,0,0,0,0,0,0,0,0,-0.6204,-0.6202,0,-0.6078,-0.6076,-0.6075,-0.605,-0.6051,-0.6051,-0.6052,-0.5918,-0.5914,-0.591,0,0,0,0,0,0,0,0,0,0,0,0,0,-0.6418,-0.6414,-0.6204,-0.6202,-0.6201,-0.6078,-0.6076,-0.6074,-0.6049,-0.6051,-0.6052,-0.6053,-0.592,-0.5914,-0.5909,0,0,0,0,0,0,0,0,0,0,0,0,0,-0.6311,-0.6413,-0.6204,-0.6174,-0.617,-0.6078,-0.6076,-0.6074,-0.6049,-0.6051,-0.6052,-0.6053,-0.5922,-0.5915,-0.5908,-0.5837,0,0,-0.5888,-0.5885,0,0,0,0,0,0,0,0,-0.6317,-0.6304,-0.618,-0.6176,-0.6171,-0.6081,-0.6102,-0.5994,-0.6049,-0.6095,-0.6052,-0.6054,-0.5971,-0.596,-0.5933,-0.5831,-0.5825,-0.5887,-0.5883,-0.588,-0.5878,0,0,0,0,0,0,0,-0.6325,-0.6309,-0.6154,-0.6178,-0.6172,-0.6164,-0.6151,-0.6082,-0.6026,-0.6091,-0.6089,-0.6074,-0.5969,-0.594,-0.593,-0.5823,-0.5887,-0.5881,-0.5877,-0.5875,-0.5653,-0.5651,0,0,0,0,0,0,-0.6338,-0.6315,-0.6158,-0.615,-0.6249,-0.6159,-0.6144,-0.6108,-0.6027,-0.6016,-0.6073,-0.6074,-0.595,-0.5938,-0.5925,-0.5833,-0.588,-0.5874,-0.587,-0.5654,-0.5652,-0.565,0,0,0,0,0,0,-0.6343,-0.6325,-0.6163,-0.6232,-0.6211,-0.6154,-0.6114,-0.6105,-0.6076,-0.6013,-0.6003,-0.6054,-0.5951,-0.5934,-0.5859,-0.5829,-0.5871,-0.5865,-0.5657,-0.5654,-0.5651,-0.5652,0,0,0,0,0,0,-0.6349,-0.6326,-0.63,-0.6232,-0.6207,-0.61,-0.6112,-0.6101,-0.6065,-0.6064,-0.5993,-0.5982,-0.5951,-0.5869,-0.5852,-0.582,-0.586,-0.5659,-0.5655,-0.5652,-0.5654,-0.5649,-0.5645,0,0,0,0,0,-0.6357,-0.6305,-0.6299,-0.628,-0.6173,-0.6099,-0.6085,-0.6051,-0.6063,-0.6034,-0.5994,-0.5984,-0.5835,-0.5861,-0.5842,-0.5808,-0.5661,-0.5656,-0.5652,-0.5656,-0.565,-0.5645,0,0,0,0,0,0,-0.637,-0.6295,-0.6288,-0.6213,-0.6162,-0.6095,-0.6058,-0.6047,-0.5991,-0.5993,-0.5952,-0.5936,-0.5862,-0.5828,-0.5858,-0.5733,-0.5748,-0.574,-0.5758,-0.5752,-0.5747,-0.5756,-0.5854,0,0,0,0,0,-0.6365,-0.6312,-0.6249,-0.6188,-0.6164,-0.6116,-0.6082,-0.6061,-0.6006,-0.5984,-0.5939,-0.5885,-0.5825,-0.5787,-0.5729,-0.565,-0.5632,-0.5617,-0.5612,-0.5609,-0.5601,-0.5553,-0.5545,-0.5636,-0.5636,-0.5637,0,0,-0.6352,-0.6305,-0.6274,-0.619,-0.6148,-0.6092,-0.6098,-0.6039,-0.5996,-0.5975,-0.59,-0.5865,-0.5802,-0.5723,-0.5686,-0.5692,-0.5572,-0.5604,-0.5601,-0.5595,-0.5548,-0.554,-0.5532,-0.5634,-0.5634,-0.5635,0,0,-0.6299,-0.626,-0.6204,-0.6162,-0.61,-0.6068,-0.6055,-0.5988,-0.5964,-0.5889,-0.5871,-0.5819,-0.5719,-0.5674,-0.5638,-0.5568,-0.5555,-0.555,-0.5526,-0.548,-0.5472,-0.5466,-0.5438,-0.5428,-0.5543,-0.5543,-0.5543,0,-0.6291,-0.6208,-0.6176,-0.6117,-0.608,-0.606,-0.6001,-0.5962,-0.5883,-0.5856,-0.5865,-0.5737,-0.5693,-0.5602,-0.5585,-0.5558,-0.5539,-0.5557,-0.5477,-0.5469,-0.5463,-0.5435,-0.5425,-0.5543,-0.5543,-0.5543,-0.5543,0,-0.6199,-0.6141,-0.6103,-0.6029,-0.5987,-0.5929,-0.5886,-0.5847,-0.583,-0.5796,-0.5718,-0.5666,-0.5595,-0.5573,-0.5555,-0.5478,-0.5484,-0.5485,-0.5499,-0.5454,-0.5427,-0.5417,-0.5542,-0.5542,-0.5543,-0.5543,0,0,-0.615,-0.6059,-0.6045,-0.601,-0.5939,-0.5893,-0.5833,-0.5765,-0.5732,-0.5678,-0.5624,-0.554,-0.554,-0.5499,-0.5476,-0.5436,-0.5379,-0.5441,-0.5439,-0.5429,-0.5288,-0.5286,-0.5274,-0.5372,-0.537,-0.5369,-0.5292,0,-0.6087,-0.598,-0.5949,-0.5859,-0.5803,-0.5783,-0.573,-0.568,-0.5647,-0.5593,-0.5557,-0.5496,-0.5502,-0.5477,-0.5437,-0.5395,-0.535,-0.54,-0.5319,-0.5316,-0.5332,-0.5261,-0.5258,-0.5189,-0.5282,-0.528,-0.5279,0,-0.5999,-0.5944,-0.5848,-0.5783,-0.5758,-0.5712,-0.5646,-0.5597,-0.5538,-0.5517,-0.5471,-0.5451,-0.5385,-0.5405,-0.5311,-0.5346,-0.5311,-0.5285,-0.5281,-0.527,-0.5293,-0.5244,-0.5166,-0.5155,-0.5263,-0.5264,-0.5266,0,-0.5969,-0.5872,-0.5801,-0.5772,-0.5695,-0.5662,-0.5628,-0.5571,-0.5532,-0.5474,-0.5448,-0.5383,-0.5347,-0.5296,-0.5258,-0.5277,-0.5167,-0.5184,-0.5144,-0.5145,-0.512,-0.5121,-0.5032,-0.5103,-0.5103,-0.5103,-0.5103,0,-0.59,-0.5841,-0.5786,-0.5742,-0.5675,-0.5639,-0.5573,-0.5538,-0.5487,-0.5434,-0.5413,-0.5364,-0.5318,-0.5261,-0.5231,-0.5157,-0.5141,-0.512,-0.5112,-0.512,-0.5122,-0.5094,-0.5097,-0.51,-0.5101,-0.5101,-0.5102,0,-0.5854,-0.5816,-0.5737,-0.567,-0.5652,-0.5605,-0.5547,-0.5502,-0.5469,-0.5402,-0.5384,-0.533,-0.5263,-0.5221,-0.5135,-0.5114,-0.5031,-0.5026,-0.5051,-0.5046,-0.5008,-0.5011,-0.4894,-0.4876,-0.4962,-0.4961,-0.4961,0,-0.5812,-0.5766,-0.5694,-0.5658,-0.5624,-0.5566,-0.5526,-0.5489,-0.5447,-0.5377,-0.534,-0.5271,-0.5214,-0.5106,-0.5058,-0.4992,-0.4983,-0.4947,-0.4973,-0.4982,-0.4979,-0.4981,-0.4974,-0.4942,-0.4941,-0.4941,-0.494,0,-0.5739,-0.5721,-0.5665,-0.5602,-0.5555,-0.5503,-0.5451,-0.5422,-0.5375,-0.533,-0.5261,-0.5217,-0.5129,-0.5059,-0.4988,-0.4951,-0.4936,-0.4933,-0.4919,-0.4926,-0.494,-0.4928,-0.5036,-0.4935,-0.4936,-0.4936,-0.4936,-0.4936,-0.569,-0.5648,-0.5591,-0.5528,-0.5485,-0.5437,-0.5391,-0.5352,-0.5294,-0.522,-0.5202,-0.5129,-0.5069,-0.4972,-0.4934,-0.4874,-0.4879,-0.4861,-0.4855,-0.485,-0.4848,-0.4953,-0.4862,-0.4862,-0.4862,-0.4862,-0.4862,0,-0.5614,-0.5576,-0.5519,-0.5447,-0.5397,-0.539,-0.5332,-0.529,-0.5226,-0.5173,-0.5117,-0.5036,-0.4969,-0.4916,-0.4846,-0.4808,-0.48,-0.4791,-0.4791,-0.4782,-0.4849,-0.4866,-0.4799,-0.4799,-0.4799,-0.4799,-0.4799,-0.4799,-0.5567,-0.5494,-0.547,-0.5374,-0.5336,-0.5265,-0.5232,-0.5186,-0.5143,-0.5054,-0.4998,-0.4965,-0.4911,-0.4836,-0.4773,-0.4759,-0.4733,-0.4725,-0.4709,-0.4771,-0.4778,-0.4785,-0.48,-0.472,-0.472,-0.4646,-0.4646,-0.4645]},{"header":{"parameterUnit":"m.s-1","parameterCategory":1,"la1":30.2991,"la2":30.254,"lo1":-89.0895,"lo2":-89.0444,"dy":0.0017,"dx":0.0017,"nx":28,"ny":28,"refTime":"2023-09-09T03:00:00:Z","depth":0,"parameterNumber":3,"parameterNumberName":"V-component_of_WINDS"},"data":[0,0,0,0,0,0,0,0,0,0,0,0,0,0,0,0,0,0,0,0,0,0,0,0,0,0,0,0,0,0,0,0,0,0,0,0,0,0,0,0,0,0,0,0,0,0,0,0,0,0,0,0,0,0,0,0,0,0,-1.0557,-1.0559,0,-1.0688,-1.069,-1.0691,-1.0803,-1.0804,-1.0806,-1.0807,-1.094,-1.0942,-1.0944,0,0,0,0,0,0,0,0,0,0,0,0,0,-1.0403,-1.0406,-1.0557,-1.0559,-1.056,-1.0688,-1.069,-1.0692,-1.0803,-1.0805,-1.0806,-1.0807,-1.0939,-1.0942,-1.0945,0,0,0,0,0,0,0,0,0,0,0,0,0,-1.0496,-1.0406,-1.0557,-1.0631,-1.0639,-1.0688,-1.069,-1.0692,-1.0803,-1.0805,-1.0806,-1.0808,-1.0938,-1.0942,-1.0945,-1.093,0,0,-1.0956,-1.0958,0,0,0,0,0,0,0,0,-1.049,-1.0501,-1.0619,-1.0626,-1.0635,-1.0731,-1.0685,-1.0772,-1.0802,-1.0741,-1.0807,-1.0809,-1.0869,-1.0878,-1.0899,-1.0936,-1.0942,-1.0956,-1.0958,-1.096,-1.0961,0,0,0,0,0,0,0,-1.0484,-1.0496,-1.0609,-1.062,-1.0631,-1.0658,-1.0674,-1.0701,-1.0793,-1.0746,-1.0755,-1.0769,-1.0874,-1.0895,-1.0903,-1.0944,-1.0956,-1.0959,-1.0962,-1.0963,-1.0975,-1.0974,0,0,0,0,0,0,-1.0466,-1.049,-1.0605,-1.0613,-1.0566,-1.066,-1.0677,-1.0699,-1.0793,-1.0809,-1.0767,-1.0773,-1.0888,-1.0898,-1.0908,-1.0896,-1.096,-1.0963,-1.0965,-1.0977,-1.0975,-1.0973,0,0,0,0,0,0,-1.0462,-1.0475,-1.06,-1.0554,-1.0572,-1.066,-1.0684,-1.07,-1.0722,-1.0808,-1.0825,-1.0772,-1.089,-1.0903,-1.0924,-1.0902,-1.0965,-1.0968,-1.0979,-1.0976,-1.0974,-1.0871,0,0,0,0,0,0,-1.0457,-1.0473,-1.0468,-1.0553,-1.0574,-1.0613,-1.0683,-1.0701,-1.0728,-1.0737,-1.0817,-1.0832,-1.0892,-1.0918,-1.0927,-1.0908,-1.0971,-1.0982,-1.0978,-1.0975,-1.0876,-1.0865,-1.0855,0,0,0,0,0,-1.0451,-1.0433,-1.0467,-1.048,-1.0569,-1.0611,-1.0623,-1.0693,-1.0725,-1.0721,-1.0777,-1.083,-1.0903,-1.0919,-1.093,-1.0912,-1.0983,-1.0979,-1.0975,-1.0881,-1.0867,-1.0855,0,0,0,0,0,0,-1.0342,-1.0446,-1.0484,-1.0493,-1.0543,-1.063,-1.0626,-1.0676,-1.0716,-1.0724,-1.0808,-1.0825,-1.0837,-1.0877,-1.0893,-1.0902,-1.095,-1.0948,-1.0875,-1.0862,-1.0852,-1.0841,-1.0974,0,0,0,0,0,-1.032,-1.0345,-1.0434,-1.0434,-1.0457,-1.0537,-1.0558,-1.0607,-1.0662,-1.0683,-1.0741,-1.0791,-1.0826,-1.0847,-1.0884,-1.0884,-1.0903,-1.0877,-1.0866,-1.0857,-1.0853,-1.0857,-1.0846,-1.096,-1.096,-1.096,0,0,-1.0272,-1.0332,-1.0343,-1.0413,-1.0457,-1.0482,-1.0554,-1.0576,-1.0595,-1.0687,-1.0709,-1.0754,-1.0816,-1.0826,-1.0834,-1.086,-1.0827,-1.0852,-1.0844,-1.0845,-1.0851,-1.084,-1.0831,-1.0957,-1.0957,-1.0958,0,0,-1.0198,-1.0246,-1.0251,-1.0294,-1.036,-1.0414,-1.0415,-1.0496,-1.0529,-1.0554,-1.0623,-1.0647,-1.0705,-1.0746,-1.0775,-1.0718,-1.0768,-1.0728,-1.0671,-1.0673,-1.0664,-1.0656,-1.0635,-1.0627,-1.0725,-1.0725,-1.0724,0,-1.013,-1.017,-1.0247,-1.0266,-1.0294,-1.038,-1.0385,-1.0423,-1.0497,-1.0515,-1.0544,-1.0619,-1.0667,-1.0688,-1.0674,-1.0695,-1.0699,-1.0718,-1.0659,-1.0652,-1.0646,-1.0627,-1.0619,-1.0719,-1.072,-1.072,-1.0721,0,-1.0084,-1.011,-1.0106,-1.0176,-1.0205,-1.0217,-1.0295,-1.0315,-1.0363,-1.0414,-1.0438,-1.0499,-1.0549,-1.0559,-1.0605,-1.0587,-1.0601,-1.0643,-1.0693,-1.0629,-1.0612,-1.0605,-1.0711,-1.0713,-1.0715,-1.0716,0,0,-0.9942,-1.0056,-1.0053,-1.0086,-1.0166,-1.0188,-1.0204,-1.0254,-1.0269,-1.0319,-1.0334,-1.0382,-1.0422,-1.0454,-1.0507,-1.0509,-1.0459,-1.0551,-1.0554,-1.0531,-1.0442,-1.0408,-1.0398,-1.0494,-1.0493,-1.0492,-1.0436,0,-0.988,-0.9913,-0.9983,-0.9994,-1.002,-1.0102,-1.0116,-1.0167,-1.0215,-1.0244,-1.0298,-1.033,-1.0381,-1.0401,-1.0407,-1.0464,-1.0442,-1.0469,-1.0508,-1.0509,-1.0488,-1.039,-1.0354,-1.0298,-1.043,-1.0429,-1.0429,0,-0.9811,-0.9855,-0.9869,-0.9948,-0.9962,-0.9973,-1.0025,-1.0051,-1.0111,-1.0146,-1.0183,-1.0241,-1.0263,-1.031,-1.0341,-1.0358,-1.0378,-1.0409,-1.0408,-1.0413,-1.0463,-1.039,-1.0282,-1.0273,-1.0419,-1.042,-1.0421,0,-0.9704,-0.9768,-0.9784,-0.9811,-0.9904,-0.991,-0.9949,-1.0011,-1.0037,-1.0082,-1.01,-1.0147,-1.0173,-1.0208,-1.0278,-1.0306,-1.0301,-1.0354,-1.033,-1.0328,-1.0323,-1.0322,-1.0215,-1.0339,-1.0339,-1.0339,-1.0339,0,-0.9626,-0.963,-0.9738,-0.9747,-0.9756,-0.9837,-0.9843,-0.989,-0.9944,-0.9965,-1.004,-1.0057,-1.0149,-1.0177,-1.0232,-1.0249,-1.026,-1.0289,-1.0303,-1.0281,-1.0277,-1.0294,-1.0299,-1.0337,-1.0338,-1.0338,-1.0338,0,-0.9507,-0.9579,-0.9602,-0.969,-0.9712,-0.9714,-0.9788,-0.9801,-0.9855,-0.988,-0.9891,-0.9975,-1.0013,-1.0086,-1.0144,-1.0181,-1.0185,-1.0211,-1.0164,-1.0173,-1.0144,-1.0145,-1.0043,-1.0033,-1.0164,-1.0163,-1.0162,0,-0.9451,-0.9457,-0.9545,-0.9564,-0.9601,-0.9631,-0.9658,-0.9739,-0.9764,-0.9833,-0.9837,-0.9881,-0.992,-0.9976,-1.0042,-1.0087,-1.0114,-1.0075,-1.0121,-1.0099,-1.0112,-1.0109,-1.011,-1.0064,-1.0062,-1.006,-1.0059,0,-0.9344,-0.938,-0.9416,-0.9465,-0.9495,-0.9537,-0.9583,-0.9595,-0.9687,-0.9711,-0.9751,-0.9781,-0.9841,-0.9883,-0.9938,-0.9979,-1.0033,-1.0045,-1.0041,-1.0018,-0.999,-1.0003,-1.0134,-1.0046,-1.0047,-1.0048,-1.0049,-1.0049,-0.9254,-0.9263,-0.9327,-0.9365,-0.9408,-0.945,-0.9466,-0.9523,-0.9557,-0.9612,-0.9658,-0.9693,-0.9754,-0.9834,-0.9872,-0.9901,-0.9927,-0.9922,-0.9921,-0.9918,-0.9908,-0.9987,-0.9911,-0.9912,-0.9912,-0.9913,-0.9913,0,-0.915,-0.9195,-0.9229,-0.9292,-0.9322,-0.9373,-0.9427,-0.9448,-0.9478,-0.9531,-0.9568,-0.9613,-0.9655,-0.9726,-0.9773,-0.9783,-0.9809,-0.9792,-0.9791,-0.98,-0.9882,-0.988,-0.977,-0.977,-0.977,-0.977,-0.977,-0.977,-0.9098,-0.9116,-0.9159,-0.92,-0.9246,-0.9281,-0.9307,-0.9346,-0.9389,-0.9436,-0.9471,-0.9517,-0.9577,-0.963,-0.967,-0.969,-0.9703,-0.9678,-0.9705,-0.9781,-0.9794,-0.9807,-0.9805,-0.9681,-0.968,-0.962,-0.962,-0.9619]}]]